Weather History for Clarion, IA

Change the Weather History Date:

Sunday, February 26, 2012

  Actual Average Record
Temperature  
Mean Temperature 36 °F -  
Max Temperature 46 °F 34 °F 51 °F (1951)
Min Temperature 26 °F 16 °F -24 °F (1950)
Degree Days  
Heating Degree Days 29    
Moisture  
Dew Point 24 °F    
Average Humidity 61    
Maximum Humidity 70    
Minimum Humidity 49    
Precipitation  
Precipitation 0.00 in - - ()
Sea Level Pressure  
Sea Level Pressure 29.85 in    
Wind  
Wind Speed 26 mph (SW)    
Max Wind Speed 36 mph    
Max Gust Speed 47 mph    
Visibility 10 miles    
Events      
Averages and records for this station are not official NWS values.
T = Trace of Precipitation, MM = Missing Value Source: NWS Daily Summary

Daily Weather History Graph

Daily Weather History Graph

Search for Another Location

Airport:

Trip Planner

Search our weather history database for the weather conditions in past years. The results will help you decide how hot, cold, wet, or windy it might be!

Date:

Astronomy

Feb. 26, 2012 Rise Set
Actual Time 6:56 AM CST 6:00 PM CST
Civil Twilight 6:27 AM CST 6:28 PM CST
Nautical Twilight 5:55 AM CST 7:01 PM CST
Astronomical Twilight 5:22 AM CST 7:34 PM CST
Moon 8:43 AM CST (2/26) 11:07 PM CST (2/26)
Length of Visible Light 12h 00m
Length of Day
11h 03m
Waxing Crescent, 21% of the Moon is Illuminated
Feb 26
Waxing Crescent
Feb 29
First Quarter
Mar 8
Full
Mar 14
Last Quarter
Mar 22
New

Hourly Weather History & Observations

Time (CST) Temp. Windchill Dew Point Humidity Pressure Visibility Wind Dir Wind Speed Gust Speed Precip Events Conditions
12:15 AM 26.6 °F 12.4 °F 17.6 °F 69% 29.94 in 10.0 mi ESE 21.9 mph 32.2 mph N/A   Clear
12:35 AM 26.6 °F 11.1 °F 17.6 °F 69% 29.91 in 10.0 mi ESE 26.5 mph 35.7 mph N/A   Clear
12:55 AM 26.6 °F 10.8 °F 17.6 °F 69% 29.89 in 10.0 mi ESE 27.6 mph 34.5 mph N/A   Clear
1:15 AM 26.6 °F 9.8 °F 17.6 °F 69% 29.86 in 10.0 mi ESE 32.2 mph 39.1 mph N/A   Clear
1:35 AM 26.6 °F 9.8 °F 17.6 °F 69% 29.83 in 10.0 mi ESE 32.2 mph 39.1 mph N/A   Clear
1:55 AM 26.6 °F 9.6 °F 17.6 °F 69% 29.81 in 10.0 mi ESE 33.4 mph 40.3 mph N/A   Clear
2:15 AM 26.6 °F 10.6 °F 17.6 °F 69% 29.82 in 10.0 mi SE 28.8 mph 35.7 mph N/A   Clear
2:35 AM 28.4 °F 12.7 °F 17.6 °F 64% 29.80 in 10.0 mi SE 29.9 mph 39.1 mph N/A   Clear
2:55 AM 30.2 °F 14.7 °F 19.4 °F 64% 29.78 in 10.0 mi SE 32.2 mph 39.1 mph N/A   Clear
3:15 AM 30.2 °F 15.4 °F 19.4 °F 64% 29.77 in 10.0 mi SE 28.8 mph 38.0 mph N/A   Clear
3:35 AM 30.2 °F 15.9 °F 19.4 °F 64% 29.76 in 10.0 mi SE 26.5 mph 34.5 mph N/A   Clear
3:55 AM 28.4 °F 13.8 °F 19.4 °F 69% 29.76 in 10.0 mi SE 25.3 mph 39.1 mph N/A   Clear
4:35 AM 30.2 °F 14.7 °F 19.4 °F 64% 29.73 in 10.0 mi SE 32.2 mph 38.0 mph N/A   Clear
4:55 AM 30.2 °F 15.7 °F 19.4 °F 64% 29.71 in 10.0 mi SE 27.6 mph 34.5 mph N/A   Clear
5:15 AM 30.2 °F 15.9 °F 19.4 °F 64% 29.70 in 10.0 mi SE 26.5 mph 32.2 mph N/A   Clear
5:35 AM 30.2 °F 15.7 °F 19.4 °F 64% 29.70 in 10.0 mi SE 27.6 mph 35.7 mph N/A   Clear
6:35 AM 30.2 °F 17.4 °F 21.2 °F 69% 29.69 in 10.0 mi SSE 20.7 mph 27.6 mph N/A   Clear
6:55 AM 30.2 °F 17.4 °F 21.2 °F 69% 29.69 in 10.0 mi SSE 20.7 mph - N/A   Clear
7:15 AM 32.0 °F 20.5 °F 21.2 °F 64% 29.69 in 10.0 mi SSE 18.4 mph 27.6 mph N/A   Clear
7:35 AM 32.0 °F 20.5 °F 23.0 °F 69% 29.70 in 10.0 mi South 18.4 mph - N/A   Clear
7:55 AM 33.8 °F 22.2 °F 24.8 °F 70% 29.70 in 10.0 mi South 20.7 mph - N/A   Clear
8:15 AM 33.8 °F 22.8 °F 24.8 °F 70% 29.71 in 10.0 mi South 18.4 mph - N/A   Clear
8:55 AM 39.2 °F 29.8 °F 28.4 °F 65% 29.72 in 10.0 mi South 18.4 mph - N/A   Clear
9:15 AM 42.8 °F 33.8 °F 28.4 °F 57% 29.72 in 10.0 mi SSW 21.9 mph 28.8 mph N/A   Clear
9:35 AM 42.8 °F 33.5 °F 28.4 °F 57% 29.72 in 10.0 mi SSW 23.0 mph 28.8 mph N/A   Clear
9:55 AM 42.8 °F 33.8 °F 28.4 °F 57% 29.73 in 10.0 mi SSW 21.9 mph - N/A   Clear
10:15 AM 44.6 °F 35.9 °F 30.2 °F 57% 29.74 in 10.0 mi SW 23.0 mph - N/A   Clear
10:35 AM 44.6 °F 36.9 °F 30.2 °F 57% 29.75 in 10.0 mi SW 18.4 mph 25.3 mph N/A   Clear
10:55 AM 44.6 °F 36.4 °F 30.2 °F 57% 29.75 in 10.0 mi SW 20.7 mph - N/A   Clear
11:15 AM 46.4 °F 38.5 °F 32.0 °F 57% 29.76 in 10.0 mi SW 21.9 mph - N/A   Clear
11:35 AM 46.4 °F 36.5 °F 30.2 °F 53% 29.77 in 10.0 mi WSW 34.5 mph 41.4 mph N/A   Clear
11:55 AM 46.4 °F 37.2 °F 30.2 °F 53% 29.79 in 10.0 mi WSW 29.9 mph 42.6 mph N/A   Clear
12:15 PM 44.6 °F 34.4 °F 30.2 °F 57% 29.80 in 10.0 mi West 32.2 mph 42.6 mph N/A   Clear
12:35 PM 46.4 °F 37.5 °F 32.0 °F 57% 29.80 in 10.0 mi WSW 27.6 mph 35.7 mph N/A   Clear
12:55 PM 44.6 °F 33.9 °F 30.2 °F 57% 29.80 in 10.0 mi West 35.7 mph 43.7 mph N/A   Clear
1:15 PM 46.4 °F 37.0 °F 32.0 °F 57% 29.81 in 10.0 mi WSW 31.1 mph 39.1 mph N/A   Clear
1:35 PM 46.4 °F 37.5 °F 32.0 °F 57% 29.81 in 10.0 mi WSW 27.6 mph 41.4 mph N/A   Clear
1:55 PM 46.4 °F 37.0 °F 33.8 °F 62% 29.82 in 10.0 mi West 31.1 mph 38.0 mph N/A   Clear
2:15 PM 44.6 °F 34.1 °F 30.2 °F 57% 29.84 in 10.0 mi West 34.5 mph 43.7 mph N/A   Clear
2:35 PM 44.6 °F 34.2 °F 26.6 °F 49% 29.85 in 10.0 mi West 33.4 mph 40.3 mph N/A   Clear
2:55 PM 42.8 °F 31.8 °F 26.6 °F 53% 29.87 in 10.0 mi West 33.4 mph 40.3 mph N/A   Clear
3:15 PM 42.8 °F 31.8 °F 26.6 °F 53% 29.88 in 10.0 mi West 33.4 mph 43.7 mph N/A   Clear
3:35 PM 41.0 °F 29.5 °F 24.8 °F 53% 29.90 in 10.0 mi West 32.2 mph 47.2 mph N/A   Clear
3:55 PM 39.2 °F 26.5 °F 23.0 °F 52% 29.91 in 10.0 mi West 35.7 mph 43.7 mph N/A   Clear
4:15 PM 39.2 °F 26.6 °F 23.0 °F 52% 29.92 in 10.0 mi West 34.5 mph 40.3 mph N/A   Clear
4:35 PM 39.2 °F 26.8 °F 23.0 °F 52% 29.93 in 10.0 mi West 33.4 mph 41.4 mph N/A   Clear
4:55 PM 37.4 °F 25.9 °F 23.0 °F 56% 29.95 in 10.0 mi West 25.3 mph 34.5 mph N/A   Clear
5:15 PM 37.4 °F 26.1 °F 24.8 °F 60% 29.96 in 10.0 mi West 24.2 mph 28.8 mph N/A   Clear
5:35 PM 35.6 °F 24.5 °F 23.0 °F 60% 29.98 in 10.0 mi West 20.7 mph 29.9 mph N/A   Clear
5:55 PM 35.6 °F 24.5 °F 21.2 °F 56% 29.99 in 10.0 mi West 20.7 mph 31.1 mph N/A   Clear
6:15 PM 33.8 °F 22.5 °F 21.2 °F 60% 30.00 in 10.0 mi West 19.6 mph 27.6 mph N/A   Clear
6:35 PM 33.8 °F 21.3 °F 21.2 °F 60% 30.01 in 10.0 mi West 24.2 mph 33.4 mph N/A   Clear
6:55 PM 33.8 °F 20.5 °F 21.2 °F 60% 30.03 in 10.0 mi West 27.6 mph 32.2 mph N/A   Clear
7:15 PM 33.8 °F 20.8 °F 19.4 °F 56% 30.04 in 10.0 mi West 26.5 mph 31.1 mph N/A   Clear
7:35 PM 32.0 °F 19.8 °F 19.4 °F 60% 30.05 in 10.0 mi West 20.7 mph 28.8 mph N/A   Clear
7:55 PM 32.0 °F 20.1 °F 21.2 °F 64% 30.06 in 10.0 mi West 19.6 mph - N/A   Clear
8:15 PM 32.0 °F 20.5 °F 21.2 °F 64% 30.06 in 10.0 mi West 18.4 mph 26.5 mph N/A   Clear
8:35 PM 30.2 °F 18.5 °F 21.2 °F 69% 30.07 in 10.0 mi West 17.3 mph - N/A   Clear
8:55 PM 30.2 °F 17.8 °F 19.4 °F 64% 30.08 in 10.0 mi West 19.6 mph 27.6 mph N/A   Clear
9:15 PM 30.2 °F 17.1 °F 17.6 °F 60% 30.09 in 10.0 mi West 21.9 mph 33.4 mph N/A   Clear
9:35 PM 28.4 °F 13.5 °F 17.6 °F 64% 30.10 in 10.0 mi West 26.5 mph 32.2 mph N/A   Clear
9:55 PM 28.4 °F 14.7 °F 17.6 °F 64% 30.11 in 10.0 mi West 21.9 mph 28.8 mph N/A   Clear
10:15 PM 28.4 °F 15.8 °F 19.4 °F 69% 30.12 in 10.0 mi West 18.4 mph - N/A   Clear
10:35 PM 28.4 °F 15.8 °F 17.6 °F 64% 30.13 in 10.0 mi West 18.4 mph 21.9 mph N/A   Clear
10:55 PM 26.6 °F 13.1 °F 17.6 °F 69% 30.13 in 10.0 mi West 19.6 mph 24.2 mph N/A   Clear
11:15 PM 26.6 °F 13.1 °F 17.6 °F 69% 30.14 in 10.0 mi West 19.6 mph - N/A   Scattered Clouds
11:35 PM 26.6 °F 12.7 °F 17.6 °F 69% 30.14 in 10.0 mi West 20.7 mph - N/A   Scattered Clouds
11:55 PM 24.8 °F 11.1 °F 17.6 °F 74% 30.15 in 10.0 mi West 18.4 mph 25.3 mph N/A   Clear